Terminal Aerodrome Forecast
Issued by NWS St Louis, MO

Home | Current Version | Previous Version | Text Only | Print | Product List | Glossary On
Versions: 1 2 3 4 5 6 7 8 9 10 11 12 13 14 15 16 17 18 19 20 21 22
297
FTUS43 KLSX 081726
TAFCOU
TAF
KCOU 081726Z 0818/0918 30020G30KT P6SM -SHSN OVC035
     FM090000 32017G27KT P6SM OVC030=

USA.gov is the U.S. government's official web portal to all federal, state and local government web resources and services.